Location: C�mpuri de-Sus
(45.9500°N, 22.5500°E)
Time: 10:21:32
(UTC+00:00)

Cosmos 2278 Rocket - Pass Details

Date: 02 June 2022
Orbit: 840 x 846 km, 71.0° (Epoch: 01 July)

Event Time Altitude Azimuth Distance (km) Brightness Sun altitude
Rises 21:57:25 0° 330° (NNW) 3,417 6.5 -21.4°
Reaches altitude 10° 21:59:54 10° 327° (NNW) 2,477 5.5 -21.5°
Maximum altitude 22:05:27 58° 250° (WSW) 985 2.4 -21.6°
Enters shadow 22:06:58 43° 198° (SSW) 1,165 2.5 -21.6°
